Time,TemperatureF,DewpointF,PressureIn,WindDirection,WindDirectionDegrees,WindSpeedMPH,WindSpeedGustMPH,Humidity,HourlyPrecipIn,Conditions,Clouds,dailyrainin,SoftwareType,DateUTC
2013-06-03 00:01:00,61.1,55.0,29.78,East,90,3.3,5.8,82,0.00,,,0.00,Rainwise IP-100,2013-06-03 04:01:00,
2013-06-03 00:06:00,59.2,54.5,29.78,East,90,5.6,5.6,86,0.00,,,0.00,Rainwise IP-100,2013-06-03 04:06:00,
2013-06-03 00:11:00,57.7,54.0,29.78,ESE,112,0.0,7.9,87,0.00,,,0.00,Rainwise IP-100,2013-06-03 04:11:00,
2013-06-03 00:16:00,56.8,53.5,29.78,ESE,112,0.0,3.7,88,0.00,,,0.00,Rainwise IP-100,2013-06-03 04:16:00,
2013-06-03 00:21:00,57.4,54.5,29.78,West,270,9.6,9.6,90,0.00,,,0.00,Rainwise IP-100,2013-06-03 04:21:00,
2013-06-03 00:26:00,60.7,57.5,29.78,West,270,9.3,12.1,91,0.00,,,0.00,Rainwise IP-100,2013-06-03 04:26:00,
2013-06-03 00:31:00,65.4,61.5,29.78,WNW,292,6.5,14.5,88,0.00,,,0.00,Rainwise IP-100,2013-06-03 04:31:00,
2013-06-03 00:36:00,68.1,62.5,29.78,WSW,247,8.6,17.3,83,0.00,,,0.00,Rainwise IP-100,2013-06-03 04:36:00,
2013-06-03 00:41:00,69.3,63.0,29.78,West,270,5.6,17.5,80,0.06,,,0.01,Rainwise IP-100,2013-06-03 04:41:00,
2013-06-03 00:46:00,69.6,63.0,29.78,West,270,12.8,14.7,79,0.06,,,0.01,Rainwise IP-100,2013-06-03 04:46:00,
2013-06-03 00:51:00,69.7,63.0,29.78,WNW,292,4.9,15.4,80,0.00,,,0.01,Rainwise IP-100,2013-06-03 04:51:00,
2013-06-03 00:56:00,69.7,63.0,29.77,West,270,11.9,15.9,80,0.00,,,0.01,Rainwise IP-100,2013-06-03 04:56:00,
2013-06-03 01:01:00,69.8,63.5,29.78,West,270,12.1,14.0,81,0.00,,,0.01,Rainwise IP-100,2013-06-03 05:01:00,
2013-06-03 01:06:00,69.8,63.5,29.78,WNW,292,7.7,15.2,81,0.00,,,0.01,Rainwise IP-100,2013-06-03 05:06:00,
2013-06-03 01:11:00,69.8,63.5,29.77,WNW,292,10.3,17.7,81,0.00,,,0.01,Rainwise IP-100,2013-06-03 05:11:00,
2013-06-03 01:16:00,69.6,63.5,29.79,WNW,292,8.9,18.7,81,0.00,,,0.01,Rainwise IP-100,2013-06-03 05:16:00,
2013-06-03 01:21:00,69.3,63.5,29.78,WNW,292,10.0,17.0,82,0.00,,,0.01,Rainwise IP-100,2013-06-03 05:21:00,
2013-06-03 01:26:00,69.0,63.0,29.77,WNW,292,12.6,16.1,82,0.00,,,0.01,Rainwise IP-100,2013-06-03 05:26:00,
2013-06-03 01:31:00,68.6,63.0,29.78,West,270,8.4,18.2,83,0.00,,,0.01,Rainwise IP-100,2013-06-03 05:31:00,
2013-06-03 01:36:00,68.3,63.0,29.78,West,270,6.1,14.9,83,0.00,,,0.01,Rainwise IP-100,2013-06-03 05:36:00,
2013-06-03 01:41:00,67.8,62.5,29.78,West,270,17.7,19.4,83,0.00,,,0.01,Rainwise IP-100,2013-06-03 05:41:00,
2013-06-03 01:46:00,67.3,62.0,29.79,WNW,292,18.2,20.1,83,0.00,,,0.01,Rainwise IP-100,2013-06-03 05:46:00,
2013-06-03 01:51:00,66.9,62.0,29.79,West,270,12.6,22.4,83,0.00,,,0.01,Rainwise IP-100,2013-06-03 05:51:00,
2013-06-03 01:56:00,66.5,61.5,29.78,WNW,292,9.6,16.8,84,0.00,,,0.01,Rainwise IP-100,2013-06-03 05:56:00,
2013-06-03 02:01:00,66.2,61.5,29.79,WNW,292,9.8,16.1,84,0.00,,,0.01,Rainwise IP-100,2013-06-03 06:01:00,
2013-06-03 02:06:00,66.2,61.5,29.79,WNW,292,4.7,12.4,85,0.00,,,0.01,Rainwise IP-100,2013-06-03 06:06:00,
2013-06-03 02:11:00,66.3,61.5,29.79,West,270,8.4,11.9,85,0.00,,,0.01,Rainwise IP-100,2013-06-03 06:11:00,
2013-06-03 02:16:00,66.4,62.0,29.79,WNW,292,10.0,15.4,86,0.00,,,0.01,Rainwise IP-100,2013-06-03 06:16:00,
2013-06-03 02:21:00,66.4,62.0,29.78,West,270,8.6,11.4,86,0.00,,,0.01,Rainwise IP-100,2013-06-03 06:21:00,
2013-06-03 02:26:00,66.3,62.0,29.79,West,270,9.6,13.5,86,0.00,,,0.01,Rainwise IP-100,2013-06-03 06:26:00,
2013-06-03 02:31:00,66.3,62.0,29.79,WNW,292,5.6,15.9,86,0.00,,,0.01,Rainwise IP-100,2013-06-03 06:31:00,
2013-06-03 02:36:00,66.5,62.5,29.78,WNW,292,11.9,13.1,86,0.00,,,0.01,Rainwise IP-100,2013-06-03 06:36:00,
2013-06-03 02:41:00,66.7,62.0,29.79,WNW,292,8.9,16.1,85,0.00,,,0.01,Rainwise IP-100,2013-06-03 06:41:00,
2013-06-03 02:46:00,66.8,62.0,29.79,WNW,292,7.0,18.0,85,0.00,,,0.01,Rainwise IP-100,2013-06-03 06:46:00,
2013-06-03 02:51:00,66.6,62.0,29.79,WNW,292,11.4,17.0,85,0.00,,,0.01,Rainwise IP-100,2013-06-03 06:51:00,
2013-06-03 02:56:00,66.4,61.5,29.78,WNW,292,12.8,22.2,85,0.00,,,0.01,Rainwise IP-100,2013-06-03 06:56:00,
2013-06-03 03:01:00,66.6,62.0,29.78,West,270,11.4,17.3,85,0.00,,,0.01,Rainwise IP-100,2013-06-03 07:01:00,
2013-06-03 03:06:00,66.8,62.0,29.78,WSW,247,6.8,15.2,85,0.00,,,0.01,Rainwise IP-100,2013-06-03 07:06:00,
2013-06-03 03:11:00,67.1,62.5,29.78,SSE,157,3.5,15.9,85,0.00,,,0.01,Rainwise IP-100,2013-06-03 07:11:00,
2013-06-03 03:16:00,65.5,60.5,29.78,SE,135,5.8,10.3,84,0.00,,,0.01,Rainwise IP-100,2013-06-03 07:16:00,
2013-06-03 03:21:00,62.2,57.5,29.78,SE,135,4.4,10.5,85,0.00,,,0.01,Rainwise IP-100,2013-06-03 07:21:00,
2013-06-03 03:26:00,59.8,56.5,29.78,ESE,112,3.3,7.2,88,0.00,,,0.01,Rainwise IP-100,2013-06-03 07:26:00,
2013-06-03 03:31:00,58.5,56.0,29.78,ESE,112,4.7,10.0,89,0.00,,,0.01,Rainwise IP-100,2013-06-03 07:31:00,
2013-06-03 03:36:00,57.6,55.0,29.78,SE,135,2.6,10.0,91,0.00,,,0.01,Rainwise IP-100,2013-06-03 07:36:00,
2013-06-03 03:41:00,57.1,54.5,29.78,South,180,2.3,4.9,92,0.00,,,0.01,Rainwise IP-100,2013-06-03 07:41:00,
2013-06-03 03:46:00,57.1,55.0,29.78,ESE,112,7.2,7.2,93,0.00,,,0.01,Rainwise IP-100,2013-06-03 07:46:00,
2013-06-03 03:51:00,56.6,54.5,29.78,SE,135,2.6,7.2,93,0.00,,,0.01,Rainwise IP-100,2013-06-03 07:51:00,
2013-06-03 03:56:00,56.1,54.0,29.78,East,90,2.6,4.7,93,0.00,,,0.01,Rainwise IP-100,2013-06-03 07:56:00,
2013-06-03 04:01:00,56.0,54.0,29.78,SE,135,0.0,4.2,94,0.00,,,0.01,Rainwise IP-100,2013-06-03 08:01:00,
2013-06-03 04:06:00,56.1,54.0,29.78,East,90,4.9,5.4,94,0.00,,,0.01,Rainwise IP-100,2013-06-03 08:06:00,
2013-06-03 04:11:00,55.8,54.5,29.78,ESE,112,3.5,7.2,95,0.00,,,0.01,Rainwise IP-100,2013-06-03 08:11:00,
2013-06-03 04:16:00,55.6,54.5,29.77,NNE,22,1.4,10.3,95,0.00,,,0.01,Rainwise IP-100,2013-06-03 08:16:00,
2013-06-03 04:21:00,55.5,54.5,29.78,East,90,1.2,6.8,95,0.00,,,0.01,Rainwise IP-100,2013-06-03 08:21:00,
2013-06-03 04:26:00,55.6,54.5,29.78,WNW,292,2.6,6.3,96,0.00,,,0.01,Rainwise IP-100,2013-06-03 08:26:00,
2013-06-03 04:31:00,56.0,54.5,29.78,South,180,0.0,4.2,96,0.00,,,0.01,Rainwise IP-100,2013-06-03 08:31:00,
2013-06-03 04:36:00,56.3,55.0,29.78,NW,315,2.8,2.8,96,0.00,,,0.01,Rainwise IP-100,2013-06-03 08:36:00,
2013-06-03 04:41:00,56.4,55.0,29.78,WNW,292,3.0,4.4,96,0.00,,,0.01,Rainwise IP-100,2013-06-03 08:41:00,
2013-06-03 04:46:00,56.4,55.0,29.78,NW,315,5.6,5.6,96,0.00,,,0.01,Rainwise IP-100,2013-06-03 08:46:00,
2013-06-03 04:51:00,56.3,55.0,29.79,NW,315,5.1,6.8,96,0.00,,,0.01,Rainwise IP-100,2013-06-03 08:51:00,
2013-06-03 04:56:00,56.1,54.5,29.79,North,0,0.0,8.6,96,0.00,,,0.01,Rainwise IP-100,2013-06-03 08:56:00,
2013-06-03 05:01:00,55.9,54.5,29.79,NW,315,7.0,9.1,96,0.00,,,0.01,Rainwise IP-100,2013-06-03 09:01:00,
2013-06-03 05:06:00,55.8,54.5,29.78,WNW,292,7.0,9.8,96,0.00,,,0.01,Rainwise IP-100,2013-06-03 09:06:00,
2013-06-03 05:11:00,55.6,54.5,29.79,NW,315,6.8,10.3,96,0.00,,,0.01,Rainwise IP-100,2013-06-03 09:11:00,
2013-06-03 05:16:00,55.4,54.0,29.80,NW,315,2.6,9.1,96,0.00,,,0.01,Rainwise IP-100,2013-06-03 09:16:00,
2013-06-03 05:21:00,55.7,55.0,29.79,West,270,0.0,4.9,97,0.00,,,0.01,Rainwise IP-100,2013-06-03 09:21:00,
2013-06-03 05:26:00,56.3,56.0,29.79,North,0,2.8,6.3,97,0.00,,,0.01,Rainwise IP-100,2013-06-03 09:26:00,
2013-06-03 05:31:00,56.9,56.5,29.79,NNW,337,4.4,6.3,97,0.00,,,0.01,Rainwise IP-100,2013-06-03 09:31:00,
2013-06-03 05:36:00,57.6,57.0,29.79,NNW,337,4.2,6.1,97,0.00,,,0.01,Rainwise IP-100,2013-06-03 09:36:00,
2013-06-03 05:41:00,58.4,57.5,29.80,NE,45,0.0,6.3,97,0.00,,,0.01,Rainwise IP-100,2013-06-03 09:41:00,
2013-06-03 05:46:00,58.8,58.0,29.80,North,0,0.0,7.2,97,0.00,,,0.01,Rainwise IP-100,2013-06-03 09:46:00,
2013-06-03 05:51:00,59.1,58.0,29.80,NW,315,0.0,4.7,97,0.00,,,0.01,Rainwise IP-100,2013-06-03 09:51:00,
2013-06-03 05:56:00,59.4,58.0,29.80,WNW,292,1.2,4.0,97,0.00,,,0.01,Rainwise IP-100,2013-06-03 09:56:00,
2013-06-03 06:01:00,59.1,57.5,29.80,SE,135,5.8,7.5,96,0.00,,,0.01,Rainwise IP-100,2013-06-03 10:01:00,
2013-06-03 06:06:00,57.9,57.0,29.81,SSE,157,4.4,7.7,95,0.00,,,0.01,Rainwise IP-100,2013-06-03 10:06:00,
2013-06-03 06:11:00,56.9,56.0,29.81,SE,135,5.1,6.5,95,0.00,,,0.01,Rainwise IP-100,2013-06-03 10:11:00,
2013-06-03 06:16:00,56.8,56.0,29.81,SE,135,5.1,6.3,96,0.00,,,0.01,Rainwise IP-100,2013-06-03 10:16:00,
2013-06-03 06:21:00,57.0,56.5,29.81,SE,135,2.8,6.8,97,0.00,,,0.01,Rainwise IP-100,2013-06-03 10:21:00,
2013-06-03 06:26:00,57.3,57.0,29.81,SE,135,3.5,5.4,97,0.00,,,0.01,Rainwise IP-100,2013-06-03 10:26:00,
2013-06-03 06:31:00,57.0,56.5,29.81,SE,135,4.2,4.7,97,0.00,,,0.01,Rainwise IP-100,2013-06-03 10:31:00,
2013-06-03 06:36:00,56.4,56.0,29.81,SE,135,5.6,6.3,97,0.00,,,0.01,Rainwise IP-100,2013-06-03 10:36:00,
2013-06-03 06:41:00,55.8,55.0,29.82,SSE,157,0.0,6.5,97,0.00,,,0.01,Rainwise IP-100,2013-06-03 10:41:00,
2013-06-03 06:46:00,56.1,55.0,29.82,SSW,202,1.9,2.1,97,0.00,,,0.01,Rainwise IP-100,2013-06-03 10:46:00,
2013-06-03 06:51:00,57.0,56.5,29.82,ENE,67,3.0,3.0,97,0.00,,,0.01,Rainwise IP-100,2013-06-03 10:51:00,
2013-06-03 06:56:00,56.8,56.5,29.82,ENE,67,0.0,3.3,97,0.00,,,0.01,Rainwise IP-100,2013-06-03 10:56:00,
2013-06-03 07:01:00,56.0,54.5,29.82,ESE,112,2.8,3.3,96,0.00,,,0.01,Rainwise IP-100,2013-06-03 11:01:00,
2013-06-03 07:06:00,55.5,54.5,29.82,ESE,112,1.9,4.7,96,0.00,,,0.01,Rainwise IP-100,2013-06-03 11:06:00,
2013-06-03 07:11:00,55.1,54.0,29.83,East,90,2.6,3.3,96,0.00,,,0.01,Rainwise IP-100,2013-06-03 11:11:00,
2013-06-03 07:16:00,55.1,54.0,29.83,West,270,2.3,5.6,96,0.00,,,0.01,Rainwise IP-100,2013-06-03 11:16:00,
2013-06-03 07:21:00,55.6,54.5,29.83,East,90,0.0,6.8,96,0.00,,,0.01,Rainwise IP-100,2013-06-03 11:21:00,
2013-06-03 07:26:00,56.6,56.0,29.83,NE,45,5.6,5.6,97,0.00,,,0.01,Rainwise IP-100,2013-06-03 11:26:00,
2013-06-03 07:31:00,58.2,57.5,29.84,SSW,202,1.4,9.6,97,0.00,,,0.01,Rainwise IP-100,2013-06-03 11:31:00,
2013-06-03 07:36:00,59.5,59.0,29.84,West,270,16.6,21.0,98,0.00,,,0.01,Rainwise IP-100,2013-06-03 11:36:00,
2013-06-03 07:41:00,61.2,60.0,29.84,West,270,16.1,20.3,97,0.00,,,0.01,Rainwise IP-100,2013-06-03 11:41:00,
2013-06-03 07:46:00,62.6,61.5,29.84,West,270,17.3,23.6,97,0.00,,,0.01,Rainwise IP-100,2013-06-03 11:46:00,
2013-06-03 07:51:00,62.8,62.0,29.83,WNW,292,12.8,26.3,96,0.00,,,0.01,Rainwise IP-100,2013-06-03 11:51:00,
2013-06-03 07:56:00,63.2,62.0,29.84,West,270,14.0,24.9,96,0.00,,,0.01,Rainwise IP-100,2013-06-03 11:56:00,
2013-06-03 08:01:00,63.4,62.5,29.84,WNW,292,8.9,24.7,96,0.00,,,0.01,Rainwise IP-100,2013-06-03 12:01:00,
2013-06-03 08:06:00,63.5,62.0,29.84,WNW,292,22.4,22.4,95,0.00,,,0.01,Rainwise IP-100,2013-06-03 12:06:00,
2013-06-03 08:11:00,63.7,62.0,29.84,West,270,12.6,22.9,95,0.00,,,0.01,Rainwise IP-100,2013-06-03 12:11:00,
2013-06-03 08:16:00,63.9,62.5,29.84,West,270,16.3,20.1,95,0.00,,,0.01,Rainwise IP-100,2013-06-03 12:16:00,
2013-06-03 08:21:00,64.2,62.5,29.83,West,270,13.3,23.8,95,0.00,,,0.01,Rainwise IP-100,2013-06-03 12:21:00,
2013-06-03 08:26:00,64.4,63.0,29.83,West,270,10.3,21.2,95,0.00,,,0.01,Rainwise IP-100,2013-06-03 12:26:00,
2013-06-03 08:31:00,64.7,63.0,29.82,West,270,8.2,22.6,95,0.00,,,0.01,Rainwise IP-100,2013-06-03 12:31:00,
2013-06-03 08:36:00,65.1,63.5,29.83,WNW,292,11.9,16.3,95,0.00,,,0.01,Rainwise IP-100,2013-06-03 12:36:00,
2013-06-03 08:41:00,65.4,64.0,29.82,WNW,292,10.7,14.9,95,0.00,,,0.01,Rainwise IP-100,2013-06-03 12:41:00,
2013-06-03 08:46:00,65.4,64.0,29.82,West,270,4.9,17.0,95,0.00,,,0.01,Rainwise IP-100,2013-06-03 12:46:00,
2013-06-03 08:51:00,65.5,63.5,29.82,West,270,5.6,17.0,94,0.00,,,0.01,Rainwise IP-100,2013-06-03 12:51:00,
2013-06-03 08:56:00,65.6,63.5,29.83,West,270,10.7,13.1,94,0.00,,,0.01,Rainwise IP-100,2013-06-03 12:56:00,
2013-06-03 09:01:00,65.6,63.5,29.82,WNW,292,9.6,13.8,94,0.00,,,0.01,Rainwise IP-100,2013-06-03 13:01:00,
2013-06-03 09:06:00,65.6,63.5,29.81,West,270,11.9,15.2,94,0.00,,,0.01,Rainwise IP-100,2013-06-03 13:06:00,
2013-06-03 09:11:00,65.8,64.0,29.81,NW,315,9.1,14.9,94,0.00,,,0.01,Rainwise IP-100,2013-06-03 13:11:00,
2013-06-03 09:16:00,66.0,64.0,29.81,NNW,337,4.2,11.9,94,0.00,,,0.01,Rainwise IP-100,2013-06-03 13:16:00,
2013-06-03 09:21:00,66.1,64.0,29.80,NW,315,5.6,12.6,94,0.00,,,0.01,Rainwise IP-100,2013-06-03 13:21:00,
2013-06-03 09:26:00,66.3,64.0,29.80,West,270,5.8,12.8,93,0.00,,,0.01,Rainwise IP-100,2013-06-03 13:26:00,
2013-06-03 09:31:00,66.6,64.5,29.80,NW,315,6.1,11.4,93,0.00,,,0.01,Rainwise IP-100,2013-06-03 13:31:00,
2013-06-03 09:36:00,66.8,64.5,29.80,NW,315,8.9,13.1,93,0.00,,,0.01,Rainwise IP-100,2013-06-03 13:36:00,
2013-06-03 09:41:00,66.6,64.5,29.80,NW,315,6.1,17.5,93,0.00,,,0.01,Rainwise IP-100,2013-06-03 13:41:00,
2013-06-03 09:46:00,66.2,64.0,29.81,NNW,337,4.0,16.3,93,0.00,,,0.01,Rainwise IP-100,2013-06-03 13:46:00,
2013-06-03 09:51:00,65.7,63.5,29.81,WNW,292,3.5,13.1,93,0.00,,,0.01,Rainwise IP-100,2013-06-03 13:51:00,
2013-06-03 09:56:00,65.1,62.5,29.81,East,90,6.1,9.1,92,0.00,,,0.01,Rainwise IP-100,2013-06-03 13:56:00,
2013-06-03 10:01:00,63.3,61.0,29.82,ESE,112,4.7,7.2,92,0.00,,,0.01,Rainwise IP-100,2013-06-03 14:01:00,
2013-06-03 10:06:00,61.3,59.5,29.82,East,90,4.2,6.3,92,0.00,,,0.01,Rainwise IP-100,2013-06-03 14:06:00,
2013-06-03 10:11:00,60.8,59.5,29.82,ESE,112,0.0,5.4,94,0.00,,,0.01,Rainwise IP-100,2013-06-03 14:11:00,
2013-06-03 10:16:00,61.5,60.0,29.82,SE,135,2.8,6.5,95,0.00,,,0.01,Rainwise IP-100,2013-06-03 14:16:00,
2013-06-03 10:21:00,61.6,60.0,29.81,SE,135,5.1,6.8,95,0.00,,,0.01,Rainwise IP-100,2013-06-03 14:21:00,
2013-06-03 10:26:00,61.2,60.0,29.82,South,180,2.3,7.0,96,0.00,,,0.01,Rainwise IP-100,2013-06-03 14:26:00,
2013-06-03 10:31:00,61.8,61.0,29.82,South,180,2.6,5.1,97,0.00,,,0.01,Rainwise IP-100,2013-06-03 14:31:00,
2013-06-03 10:36:00,62.2,61.0,29.81,SSE,157,3.7,6.1,97,0.00,,,0.01,Rainwise IP-100,2013-06-03 14:36:00,
2013-06-03 10:41:00,62.2,61.0,29.81,SSE,157,2.1,6.5,97,0.06,,,0.02,Rainwise IP-100,2013-06-03 14:41:00,
2013-06-03 10:46:00,61.9,61.0,29.80,ESE,112,2.1,3.7,97,0.06,,,0.02,Rainwise IP-100,2013-06-03 14:46:00,
2013-06-03 10:51:00,60.4,59.5,29.80,East,90,2.6,5.1,96,0.00,,,0.02,Rainwise IP-100,2013-06-03 14:51:00,
2013-06-03 10:56:00,58.9,57.5,29.80,ESE,112,3.7,4.7,96,0.00,,,0.02,Rainwise IP-100,2013-06-03 14:56:00,
2013-06-03 11:01:00,58.1,57.0,29.80,ESE,112,3.0,5.8,96,0.06,,,0.03,Rainwise IP-100,2013-06-03 15:01:00,
2013-06-03 11:06:00,57.3,56.5,29.80,ESE,112,4.2,4.2,96,0.06,,,0.03,Rainwise IP-100,2013-06-03 15:06:00,
2013-06-03 11:11:00,56.8,56.5,29.80,East,90,3.3,5.1,97,0.06,,,0.04,Rainwise IP-100,2013-06-03 15:11:00,
2013-06-03 11:16:00,56.5,56.0,29.80,East,90,4.7,5.4,97,0.06,,,0.04,Rainwise IP-100,2013-06-03 15:16:00,
2013-06-03 11:21:00,56.3,56.0,29.80,SE,135,2.6,6.1,97,0.00,,,0.04,Rainwise IP-100,2013-06-03 15:21:00,
2013-06-03 11:26:00,56.4,56.0,29.80,East,90,2.1,5.8,98,0.06,,,0.05,Rainwise IP-100,2013-06-03 15:26:00,
2013-06-03 11:31:00,56.7,56.0,29.79,SE,135,1.9,2.8,98,0.06,,,0.05,Rainwise IP-100,2013-06-03 15:31:00,
2013-06-03 11:36:00,56.9,56.5,29.80,SE,135,7.2,7.2,98,0.00,,,0.05,Rainwise IP-100,2013-06-03 15:36:00,
2013-06-03 11:41:00,57.2,56.5,29.80,SSW,202,2.6,11.4,98,0.00,,,0.05,Rainwise IP-100,2013-06-03 15:41:00,
2013-06-03 11:46:00,58.3,57.5,29.80,NE,45,6.5,6.5,98,0.00,,,0.05,Rainwise IP-100,2013-06-03 15:46:00,
2013-06-03 11:51:00,58.1,57.5,29.80,SE,135,2.3,8.2,98,0.00,,,0.05,Rainwise IP-100,2013-06-03 15:51:00,
2013-06-03 11:56:00,56.8,56.5,29.80,ESE,112,1.2,6.5,97,0.00,,,0.05,Rainwise IP-100,2013-06-03 15:56:00,
2013-06-03 12:01:00,56.9,56.5,29.80,East,90,0.0,3.5,98,0.00,,,0.05,Rainwise IP-100,2013-06-03 16:01:00,
2013-06-03 12:06:00,57.4,57.0,29.81,North,0,1.4,3.0,98,0.00,,,0.05,Rainwise IP-100,2013-06-03 16:06:00,
2013-06-03 12:11:00,58.2,57.5,29.80,WNW,292,1.6,3.0,98,0.00,,,0.05,Rainwise IP-100,2013-06-03 16:11:00,
2013-06-03 12:16:00,59.3,59.0,29.80,NW,315,0.0,4.2,98,0.00,,,0.05,Rainwise IP-100,2013-06-03 16:16:00,
2013-06-03 12:21:00,60.8,60.5,29.81,WNW,292,6.1,11.4,98,0.00,,,0.05,Rainwise IP-100,2013-06-03 16:21:00,
2013-06-03 12:26:00,63.7,63.0,29.81,West,270,10.3,12.8,98,0.00,,,0.05,Rainwise IP-100,2013-06-03 16:26:00,
2013-06-03 12:31:00,66.3,65.5,29.81,West,270,8.9,14.2,97,0.00,,,0.05,Rainwise IP-100,2013-06-03 16:31:00,
2013-06-03 12:36:00,67.4,66.3,29.81,WNW,292,18.0,18.0,95,0.00,,,0.05,Rainwise IP-100,2013-06-03 16:36:00,
2013-06-03 12:41:00,68.0,66.0,29.80,WNW,292,11.2,18.0,93,0.00,,,0.05,Rainwise IP-100,2013-06-03 16:41:00,
2013-06-03 12:46:00,68.3,66.0,29.80,West,270,7.7,17.7,91,0.00,,,0.05,Rainwise IP-100,2013-06-03 16:46:00,
2013-06-03 12:50:00,68.6,65.5,29.80,WNW,292,7.2,14.7,90,0.00,,,0.05,Rainwise IP-100,2013-06-03 16:50:00,
2013-06-03 12:52:00,68.8,66.0,29.80,WNW,292,11.7,15.2,90,0.00,,,0.05,Rainwise IP-100,2013-06-03 16:52:00,
2013-06-03 12:55:00,68.9,65.5,29.80,WNW,292,8.9,15.6,89,0.00,,,0.05,Rainwise IP-100,2013-06-03 16:55:00,
2013-06-03 13:00:00,69.2,65.5,29.81,West,270,9.6,14.2,88,0.00,,,0.05,Rainwise IP-100,2013-06-03 17:00:00,
2013-06-03 13:05:00,69.6,66.0,29.80,NW,315,4.4,17.3,87,0.00,,,0.05,Rainwise IP-100,2013-06-03 17:05:00,
2013-06-03 13:10:00,69.9,66.0,29.79,West,270,12.6,17.5,87,0.00,,,0.05,Rainwise IP-100,2013-06-03 17:10:00,
2013-06-03 13:15:00,70.1,65.5,29.80,West,270,10.5,17.5,85,0.00,,,0.05,Rainwise IP-100,2013-06-03 17:15:00,
2013-06-03 13:20:00,70.3,65.5,29.79,West,270,10.5,13.5,84,0.00,,,0.05,Rainwise IP-100,2013-06-03 17:20:00,
2013-06-03 13:25:00,70.7,65.0,29.79,NNW,337,7.2,14.0,83,0.00,,,0.05,Rainwise IP-100,2013-06-03 17:25:00,
2013-06-03 13:30:00,71.2,65.0,29.79,WNW,292,7.0,10.3,81,0.00,,,0.05,Rainwise IP-100,2013-06-03 17:30:00,
2013-06-03 13:35:00,71.7,65.0,29.79,WNW,292,10.7,12.8,80,0.00,,,0.05,Rainwise IP-100,2013-06-03 17:35:00,
2013-06-03 13:40:00,71.4,64.5,29.79,West,270,8.9,12.6,79,0.00,,,0.05,Rainwise IP-100,2013-06-03 17:40:00,
2013-06-03 13:45:00,71.1,64.0,29.79,WNW,292,7.9,12.8,79,0.00,,,0.05,Rainwise IP-100,2013-06-03 17:45:00,
2013-06-03 13:50:00,71.1,64.0,29.79,West,270,5.4,10.0,79,0.00,,,0.05,Rainwise IP-100,2013-06-03 17:50:00,
2013-06-03 13:55:00,71.0,64.0,29.79,West,270,7.9,11.9,79,0.00,,,0.05,Rainwise IP-100,2013-06-03 17:55:00,
2013-06-03 14:00:00,69.6,63.0,29.79,SE,135,3.5,10.0,79,0.00,,,0.05,Rainwise IP-100,2013-06-03 18:00:00,
2013-06-03 14:05:00,68.0,61.5,29.79,WNW,292,2.1,6.8,80,0.00,,,0.05,Rainwise IP-100,2013-06-03 18:05:00,
2013-06-03 14:10:00,68.4,62.5,29.79,NW,315,2.8,10.7,82,0.00,,,0.05,Rainwise IP-100,2013-06-03 18:10:00,
2013-06-03 14:15:00,67.8,61.5,29.79,ESE,112,3.0,5.6,80,0.00,,,0.05,Rainwise IP-100,2013-06-03 18:15:00,
2013-06-03 14:20:00,63.9,57.5,29.79,ESE,112,3.3,6.3,80,0.00,,,0.05,Rainwise IP-100,2013-06-03 18:20:00,
2013-06-03 14:25:00,61.5,57.0,29.80,ESE,112,7.2,7.7,85,0.00,,,0.05,Rainwise IP-100,2013-06-03 18:25:00,
2013-06-03 14:30:00,61.7,57.5,29.80,SE,135,6.5,11.2,88,0.00,,,0.05,Rainwise IP-100,2013-06-03 18:30:00,
2013-06-03 14:35:00,62.6,59.5,29.80,West,270,3.7,12.6,89,0.00,,,0.05,Rainwise IP-100,2013-06-03 18:35:00,
2013-06-03 14:40:00,65.3,61.5,29.79,NW,315,2.6,12.1,88,0.00,,,0.05,Rainwise IP-100,2013-06-03 18:40:00,
2013-06-03 14:45:00,67.7,63.0,29.79,NW,315,3.0,13.3,85,0.00,,,0.05,Rainwise IP-100,2013-06-03 18:45:00,
2013-06-03 14:50:00,68.7,62.5,29.79,WSW,247,5.4,11.9,82,0.00,,,0.05,Rainwise IP-100,2013-06-03 18:50:00,
2013-06-03 14:55:00,69.4,63.0,29.78,WSW,247,3.5,13.5,80,0.00,,,0.05,Rainwise IP-100,2013-06-03 18:55:00,
2013-06-03 15:00:00,69.9,63.0,29.78,WNW,292,9.1,14.0,79,0.00,,,0.05,Rainwise IP-100,2013-06-03 19:00:00,
2013-06-03 15:05:00,70.1,63.0,29.78,NNW,337,3.3,13.1,79,0.00,,,0.05,Rainwise IP-100,2013-06-03 19:05:00,
2013-06-03 15:10:00,70.0,63.0,29.78,SSE,157,2.1,15.9,79,0.00,,,0.05,Rainwise IP-100,2013-06-03 19:10:00,
2013-06-03 15:15:00,70.0,63.0,29.78,SW,225,6.1,14.0,78,0.00,,,0.05,Rainwise IP-100,2013-06-03 19:15:00,
2013-06-03 15:20:00,69.9,63.0,29.78,West,270,13.3,14.7,78,0.00,,,0.05,Rainwise IP-100,2013-06-03 19:20:00,
2013-06-03 15:25:00,69.7,62.5,29.77,NW,315,6.3,14.2,78,0.00,,,0.05,Rainwise IP-100,2013-06-03 19:25:00,
2013-06-03 15:30:00,69.7,62.5,29.77,WNW,292,0.0,9.6,78,0.00,,,0.05,Rainwise IP-100,2013-06-03 19:30:00,
2013-06-03 15:35:00,69.9,62.5,29.77,SW,225,7.0,7.0,77,0.00,,,0.05,Rainwise IP-100,2013-06-03 19:35:00,
2013-06-03 15:40:00,69.9,62.5,29.77,WSW,247,4.9,10.0,77,0.00,,,0.05,Rainwise IP-100,2013-06-03 19:40:00,
2013-06-03 15:45:00,68.7,60.5,29.76,ESE,112,4.4,8.9,76,0.00,,,0.05,Rainwise IP-100,2013-06-03 19:45:00,
2013-06-03 15:50:00,64.9,58.0,29.76,ESE,112,7.7,9.1,79,0.00,,,0.05,Rainwise IP-100,2013-06-03 19:50:00,
2013-06-03 15:55:00,61.3,56.5,29.77,SE,135,9.3,10.5,83,0.00,,,0.05,Rainwise IP-100,2013-06-03 19:55:00,
2013-06-03 16:00:00,59.6,55.0,29.77,SE,135,6.8,10.5,87,0.00,,,0.05,Rainwise IP-100,2013-06-03 20:00:00,
2013-06-03 16:05:00,59.3,56.5,29.76,SE,135,3.7,8.2,90,0.00,,,0.05,Rainwise IP-100,2013-06-03 20:05:00,
2013-06-03 16:10:00,60.2,57.0,29.76,ESE,112,0.0,7.5,90,0.00,,,0.05,Rainwise IP-100,2013-06-03 20:10:00,
2013-06-03 16:15:00,61.6,59.0,29.76,WSW,247,2.3,8.9,90,0.00,,,0.05,Rainwise IP-100,2013-06-03 20:15:00,
2013-06-03 16:20:00,64.0,60.5,29.76,WSW,247,4.0,8.9,89,0.00,,,0.05,Rainwise IP-100,2013-06-03 20:20:00,
2013-06-03 16:25:00,66.1,61.5,29.76,SE,135,0.0,5.4,86,0.00,,,0.05,Rainwise IP-100,2013-06-03 20:25:00,
2013-06-03 16:30:00,65.1,59.5,29.76,ESE,112,12.1,12.8,83,0.00,,,0.05,Rainwise IP-100,2013-06-03 20:30:00,
2013-06-03 16:35:00,60.7,56.0,29.76,SE,135,6.1,12.8,85,0.00,,,0.05,Rainwise IP-100,2013-06-03 20:35:00,
2013-06-03 16:40:00,57.9,55.0,29.76,SE,135,6.8,9.1,89,0.00,,,0.05,Rainwise IP-100,2013-06-03 20:40:00,
2013-06-03 16:45:00,58.2,56.0,29.76,ESE,112,4.7,9.8,91,0.00,,,0.05,Rainwise IP-100,2013-06-03 20:45:00,
2013-06-03 16:50:00,59.0,56.5,29.76,SE,135,4.4,9.3,91,0.00,,,0.05,Rainwise IP-100,2013-06-03 20:50:00,
2013-06-03 16:55:00,59.2,56.0,29.75,SSW,202,2.3,11.9,90,0.00,,,0.05,Rainwise IP-100,2013-06-03 20:55:00,
2013-06-03 17:00:00,59.0,56.0,29.75,ESE,112,5.6,9.8,90,0.00,,,0.05,Rainwise IP-100,2013-06-03 21:00:00,
2013-06-03 17:05:00,58.7,56.0,29.76,ESE,112,4.4,6.3,90,0.00,,,0.05,Rainwise IP-100,2013-06-03 21:05:00,
2013-06-03 17:10:00,58.7,56.0,29.76,SE,135,0.0,5.8,90,0.00,,,0.05,Rainwise IP-100,2013-06-03 21:10:00,
2013-06-03 17:15:00,58.7,56.0,29.75,ESE,112,5.8,8.2,90,0.00,,,0.05,Rainwise IP-100,2013-06-03 21:15:00,
2013-06-03 17:20:00,58.5,56.0,29.75,East,90,5.6,6.3,90,0.00,,,0.05,Rainwise IP-100,2013-06-03 21:20:00,
2013-06-03 17:25:00,59.3,56.5,29.75,SE,135,5.8,7.9,90,0.00,,,0.05,Rainwise IP-100,2013-06-03 21:25:00,
2013-06-03 17:30:00,60.7,57.0,29.75,SE,135,8.2,9.1,89,0.00,,,0.05,Rainwise IP-100,2013-06-03 21:30:00,
2013-06-03 17:35:00,61.8,58.0,29.75,SW,225,2.8,8.4,87,0.00,,,0.05,Rainwise IP-100,2013-06-03 21:35:00,
2013-06-03 17:40:00,64.2,59.5,29.75,NNE,22,2.8,8.6,85,0.00,,,0.05,Rainwise IP-100,2013-06-03 21:40:00,
2013-06-03 17:45:00,66.8,61.0,29.74,NW,315,8.4,8.9,82,0.00,,,0.05,Rainwise IP-100,2013-06-03 21:45:00,
2013-06-03 17:50:00,68.6,61.5,29.74,WNW,292,9.6,17.0,79,0.00,,,0.05,Rainwise IP-100,2013-06-03 21:50:00,
2013-06-03 17:55:00,69.9,62.0,29.75,WNW,292,6.8,14.9,76,0.00,,,0.05,Rainwise IP-100,2013-06-03 21:55:00,
2013-06-03 18:00:00,70.2,62.0,29.75,SW,225,6.8,13.5,75,0.00,,,0.05,Rainwise IP-100,2013-06-03 22:00:00,
2013-06-03 18:05:00,70.2,62.0,29.73,SW,225,4.4,17.0,76,0.00,,,0.05,Rainwise IP-100,2013-06-03 22:05:00,
2013-06-03 18:10:00,70.1,62.0,29.74,SW,225,7.7,17.7,76,0.00,,,0.05,Rainwise IP-100,2013-06-03 22:10:00,
2013-06-03 18:15:00,70.2,62.0,29.74,West,270,13.1,19.6,75,0.00,,,0.05,Rainwise IP-100,2013-06-03 22:15:00,
2013-06-03 18:20:00,70.0,62.0,29.74,West,270,3.3,18.7,75,0.06,,,0.06,Rainwise IP-100,2013-06-03 22:20:00,
2013-06-03 18:25:00,69.9,62.0,29.74,West,270,12.1,18.7,75,0.06,,,0.06,Rainwise IP-100,2013-06-03 22:25:00,
2013-06-03 18:30:00,69.7,61.5,29.73,NW,315,5.6,18.4,76,0.00,,,0.06,Rainwise IP-100,2013-06-03 22:30:00,
2013-06-03 18:35:00,69.7,61.5,29.73,WSW,247,3.5,16.1,76,0.00,,,0.06,Rainwise IP-100,2013-06-03 22:35:00,
2013-06-03 18:40:00,69.8,61.5,29.74,WSW,247,13.1,17.3,76,0.00,,,0.06,Rainwise IP-100,2013-06-03 22:40:00,
2013-06-03 18:45:00,69.8,61.5,29.73,NW,315,6.5,17.7,76,0.00,,,0.06,Rainwise IP-100,2013-06-03 22:45:00,
2013-06-03 18:50:00,69.6,62.0,29.73,WNW,292,13.3,17.0,77,0.00,,,0.06,Rainwise IP-100,2013-06-03 22:50:00,
2013-06-03 18:55:00,69.2,62.0,29.74,West,270,12.6,19.1,78,0.00,,,0.06,Rainwise IP-100,2013-06-03 22:55:00,
2013-06-03 19:00:00,68.9,62.0,29.74,West,270,12.8,14.9,79,0.00,,,0.06,Rainwise IP-100,2013-06-03 23:00:00,
2013-06-03 19:05:00,68.8,62.5,29.74,NW,315,8.9,16.3,80,0.00,,,0.06,Rainwise IP-100,2013-06-03 23:05:00,
2013-06-03 19:10:00,68.8,62.5,29.73,West,270,8.6,13.5,80,0.00,,,0.06,Rainwise IP-100,2013-06-03 23:10:00,
2013-06-03 19:15:00,68.7,62.5,29.73,West,270,6.1,17.5,81,0.00,,,0.06,Rainwise IP-100,2013-06-03 23:15:00,
2013-06-03 19:20:00,68.7,62.5,29.73,West,270,13.3,13.3,81,0.00,,,0.06,Rainwise IP-100,2013-06-03 23:20:00,
2013-06-03 19:25:00,68.7,62.5,29.73,West,270,6.1,16.8,81,0.00,,,0.06,Rainwise IP-100,2013-06-03 23:25:00,
2013-06-03 19:30:00,68.5,62.5,29.74,WNW,292,7.2,21.0,81,0.00,,,0.06,Rainwise IP-100,2013-06-03 23:30:00,
2013-06-03 19:35:00,68.2,62.0,29.73,WNW,292,3.3,18.7,81,0.00,,,0.06,Rainwise IP-100,2013-06-03 23:35:00,
2013-06-03 19:40:00,68.0,62.5,29.73,WNW,292,8.9,16.1,82,0.00,,,0.06,Rainwise IP-100,2013-06-03 23:40:00,
2013-06-03 19:45:00,67.7,62.0,29.74,West,270,13.8,20.5,82,0.00,,,0.06,Rainwise IP-100,2013-06-03 23:45:00,
2013-06-03 19:50:00,67.4,62.0,29.73,West,270,12.6,17.5,83,0.00,,,0.06,Rainwise IP-100,2013-06-03 23:50:00,
2013-06-03 19:55:00,67.2,62.0,29.74,West,270,10.3,19.1,83,0.00,,,0.06,Rainwise IP-100,2013-06-03 23:55:00,
2013-06-03 20:00:00,66.9,62.0,29.74,WNW,292,9.8,17.0,84,0.00,,,0.06,Rainwise IP-100,2013-06-04 00:00:00,
2013-06-03 20:05:00,66.4,61.5,29.74,WNW,292,5.1,20.5,84,0.00,,,0.06,Rainwise IP-100,2013-06-04 00:05:00,
2013-06-03 20:10:00,66.0,61.0,29.75,West,270,14.0,20.8,85,0.00,,,0.06,Rainwise IP-100,2013-06-04 00:10:00,
2013-06-03 20:15:00,65.7,61.0,29.75,West,270,12.8,21.2,86,0.00,,,0.06,Rainwise IP-100,2013-06-04 00:15:00,
2013-06-03 20:20:00,65.4,61.0,29.75,West,270,13.8,17.7,86,0.00,,,0.06,Rainwise IP-100,2013-06-04 00:20:00,
2013-06-03 20:25:00,65.3,61.5,29.75,West,270,11.0,17.5,87,0.00,,,0.06,Rainwise IP-100,2013-06-04 00:25:00,
2013-06-03 20:30:00,65.1,61.0,29.75,West,270,10.3,18.4,87,0.00,,,0.06,Rainwise IP-100,2013-06-04 00:30:00,
2013-06-03 20:35:00,64.9,61.0,29.75,West,270,12.8,17.7,87,0.00,,,0.06,Rainwise IP-100,2013-06-04 00:35:00,
2013-06-03 20:40:00,64.7,61.0,29.74,WNW,292,14.2,19.8,88,0.00,,,0.06,Rainwise IP-100,2013-06-04 00:40:00,
2013-06-03 20:45:00,64.6,61.0,29.75,West,270,10.5,20.1,88,0.00,,,0.06,Rainwise IP-100,2013-06-04 00:45:00,
2013-06-03 20:50:00,64.6,61.0,29.74,West,270,10.3,17.7,88,0.00,,,0.06,Rainwise IP-100,2013-06-04 00:50:00,
2013-06-03 20:55:00,64.9,61.0,29.74,West,270,11.2,18.7,87,0.00,,,0.06,Rainwise IP-100,2013-06-04 00:55:00,
2013-06-03 21:00:00,65.3,61.0,29.75,West,270,14.5,20.5,86,0.00,,,0.06,Rainwise IP-100,2013-06-04 01:00:00,
2013-06-03 21:05:00,65.4,61.0,29.74,West,270,12.4,18.4,86,0.00,,,0.06,Rainwise IP-100,2013-06-04 01:05:00,
2013-06-03 21:10:00,65.4,61.0,29.74,West,270,14.9,17.3,86,0.00,,,0.06,Rainwise IP-100,2013-06-04 01:10:00,
2013-06-03 21:15:00,65.2,60.5,29.74,WNW,292,11.4,20.8,86,0.00,,,0.06,Rainwise IP-100,2013-06-04 01:15:00,
2013-06-03 21:20:00,65.0,61.0,29.74,West,270,11.4,21.0,87,0.00,,,0.06,Rainwise IP-100,2013-06-04 01:20:00,
2013-06-03 21:25:00,64.8,61.5,29.75,WNW,292,12.6,19.8,88,0.00,,,0.06,Rainwise IP-100,2013-06-04 01:25:00,
2013-06-03 21:30:00,64.8,61.5,29.75,WNW,292,10.0,18.7,88,0.00,,,0.06,Rainwise IP-100,2013-06-04 01:30:00,
2013-06-03 21:35:00,64.6,61.0,29.75,West,270,11.2,16.8,89,0.00,,,0.06,Rainwise IP-100,2013-06-04 01:35:00,
2013-06-03 21:40:00,64.3,61.0,29.75,West,270,11.2,21.0,89,0.00,,,0.06,Rainwise IP-100,2013-06-04 01:40:00,
2013-06-03 21:45:00,64.2,61.0,29.75,West,270,7.0,16.6,90,0.00,,,0.06,Rainwise IP-100,2013-06-04 01:45:00,
2013-06-03 21:50:00,64.2,61.0,29.75,West,270,10.0,15.9,90,0.00,,,0.06,Rainwise IP-100,2013-06-04 01:50:00,
2013-06-03 21:55:00,64.2,61.5,29.75,WNW,292,9.3,17.0,91,0.00,,,0.06,Rainwise IP-100,2013-06-04 01:55:00,
2013-06-03 22:00:00,64.2,61.5,29.75,West,270,7.7,16.8,91,0.00,,,0.06,Rainwise IP-100,2013-06-04 02:00:00,
2013-06-03 22:05:00,64.3,62.0,29.75,West,270,10.0,16.6,91,0.00,,,0.06,Rainwise IP-100,2013-06-04 02:05:00,
2013-06-03 22:10:00,64.2,61.5,29.76,WNW,292,15.2,15.6,91,0.00,,,0.06,Rainwise IP-100,2013-06-04 02:10:00,
2013-06-03 22:15:00,64.0,61.5,29.75,WNW,292,10.7,17.7,91,0.00,,,0.06,Rainwise IP-100,2013-06-04 02:15:00,
2013-06-03 22:20:00,63.7,61.0,29.76,NW,315,12.4,20.8,92,0.00,,,0.06,Rainwise IP-100,2013-06-04 02:20:00,
2013-06-03 22:25:00,63.3,61.0,29.76,West,270,11.7,18.0,92,0.00,,,0.06,Rainwise IP-100,2013-06-04 02:25:00,
2013-06-03 22:30:00,62.9,61.0,29.76,NW,315,7.7,14.9,93,0.00,,,0.06,Rainwise IP-100,2013-06-04 02:30:00,
2013-06-03 22:35:00,62.6,60.5,29.76,West,270,10.5,15.2,93,0.00,,,0.06,Rainwise IP-100,2013-06-04 02:35:00,
2013-06-03 22:40:00,62.4,61.0,29.76,NW,315,8.9,12.6,94,0.00,,,0.06,Rainwise IP-100,2013-06-04 02:40:00,
2013-06-03 22:45:00,62.2,60.5,29.76,NW,315,6.3,11.4,94,0.00,,,0.06,Rainwise IP-100,2013-06-04 02:45:00,
2013-06-03 22:50:00,62.2,60.5,29.76,WNW,292,9.6,13.8,95,0.00,,,0.06,Rainwise IP-100,2013-06-04 02:50:00,
2013-06-03 22:55:00,62.3,61.0,29.76,WNW,292,8.9,18.0,95,0.00,,,0.06,Rainwise IP-100,2013-06-04 02:55:00,
2013-06-03 23:00:00,62.7,61.0,29.76,West,270,9.1,15.9,95,0.00,,,0.06,Rainwise IP-100,2013-06-04 03:00:00,
2013-06-03 23:05:00,63.0,61.5,29.76,West,270,8.9,15.9,95,0.00,,,0.06,Rainwise IP-100,2013-06-04 03:05:00,
2013-06-03 23:10:00,63.2,61.5,29.76,West,270,9.8,15.9,95,0.00,,,0.06,Rainwise IP-100,2013-06-04 03:10:00,
2013-06-03 23:15:00,63.3,62.0,29.76,WNW,292,6.8,14.0,95,0.00,,,0.06,Rainwise IP-100,2013-06-04 03:15:00,
2013-06-03 23:20:00,63.4,62.0,29.76,West,270,4.7,13.8,95,0.00,,,0.06,Rainwise IP-100,2013-06-04 03:20:00,
2013-06-03 23:25:00,63.4,62.0,29.76,West,270,4.0,12.8,95,0.00,,,0.06,Rainwise IP-100,2013-06-04 03:25:00,
2013-06-03 23:30:00,63.4,62.0,29.76,WNW,292,5.6,14.9,95,0.00,,,0.06,Rainwise IP-100,2013-06-04 03:30:00,
2013-06-03 23:35:00,63.3,62.0,29.77,WSW,247,7.2,14.2,95,0.00,,,0.06,Rainwise IP-100,2013-06-04 03:35:00,
2013-06-03 23:40:00,63.3,62.0,29.76,West,270,9.6,13.3,95,0.00,,,0.06,Rainwise IP-100,2013-06-04 03:40:00,
2013-06-03 23:45:00,63.3,62.0,29.76,West,270,12.4,15.9,95,0.00,,,0.06,Rainwise IP-100,2013-06-04 03:45:00,
2013-06-03 23:50:00,63.4,62.0,29.76,West,270,9.1,13.8,95,0.00,,,0.06,Rainwise IP-100,2013-06-04 03:50:00,
2013-06-03 23:55:00,63.5,61.5,29.76,WNW,292,9.3,13.1,94,0.00,,,0.06,Rainwise IP-100,2013-06-04 03:55:00,